Reflectivity
-20 -20 -1 -16 3 -1 3 -15 2 -20 -20 -20 -20 -20 -20 -20 -20 -20 -20 -20 13 22 4 -19 21 14 1 -20 9 -13 -20 -14 -20
-20 -20 4 8 -20 -14 9 -18 -20 -20 -20 -20 -20 -20 -20 -20 -20 -20 -20 15 3 -19 -20 -13 -3 -1 -7 -6 -20 17 26 26 24
-20 -20 7 -19 -20 -10 -20 -20 -20 -20 -20 -20 -20 -20 -20 -20 -20 -20 -20 7 -20 -20 -20 -4 -18 -14 10 -20 -20 -20 -14 -20 -19
-20 -20 6 5 2 -20 -20 -20 -20 -20 -20 -20 -20 -20 -20 -20 -20 -20 -20 -18 -20 -11 5 5 -13 7 -20 -20 -20 -20 -20 -20 -20
-20 -20 -20 3 -3 -20 -20 -20 -20 -20 -20 -20 -20 -20 -20 -20 -20 -20 -20 -20 -20 2 -6 -20 -19 -16 -20 -20 -20 -20 -20 -20 -20
-20 -20 -20 -20 -20 -20 -20 -20 -20 -20 -20 -20 -20 -20 -20 -20 -20 -20 -20 -20 7 -20 -20 -20 -20 -20 -20 -20 -20 -20 -20 -20 -20
-20 -20 -20 -20 -20 -20 -20 -20 -20 -20 -20 -20 -20 -20 -20 -20 -20 -20 -20 -5 -9 -12 -20 -20 -20 -20 -20 -20 -20 -20 -20 -20 -20
-20 -20 -20 -20 -20 -20 -17 -19 -20 -20 -20 -20 -20 -20 -20 -20 -20 -20 -20 3 -19 -20 -20 -20 -20 -20 -20 -20 -20 -20 -20 -20 -20
-20 -20 -20 -20 -20 -20 -20 -20 -20 -20 -20 -20 -20 -20 -20 -20 -20 -20 -20 2 -20 -20 -20 -20 -20 -20 -20 -20 -20 -20 -20 -20 -20
-20 -20 -20 -20 -20 -20 -20 -20 -20 -20 -20 -20 -20 -20 -20 -20 -20 -20 -20 -20 -20 -20 -20 -20 -20 -20 -20 -20 -20 -20 -20 -20 -20
-20 -20 -20 -20 -20 -20 -20 -20 -20 -20 -20 -20 -20 -20 -20 -20 -20 -20 -20 -20 -20 -20 -20 -20 -20 -20 -20 -20 -20 -20 -20 -20 -20
-20 -20 -20 -20 -20 -20 -20 -20 -20 -20 -20 -20 -20 -20 -20 -20 -20 -20 -20 -20 -20 -20 -20 -20 -20 -20 -20 -20 -20 -20 -20 -20 -20
-20 -20 -20 -20 -20 -20 -20 -20 -20 -20 -20 -20 -20 -20 -20 -20 -20 -20 -20 -20 -20 -20 -20 -20 -20 -20 -20 -20 -20 -20 -20 -20 -20
-20 -20 -20 -20 -20 -20 -20 -20 -20 -20 -20 -20 -20 -20 -20 -20 -20 -20 -20 -20 -20 -20 -20 -20 -20 -20 -20 -20 -20 -20 -20 -20 -20
-20 -20 -20 -20 -20 -20 -20 -20 -20 -20 -20 -20 -20 -20 -20 -20 -20 -20 -20 -20 -20 -20 -20 -20 -20 -20 -20 -20 -20 -20 -20 -20 -20
-20 -20 -20 -20 -20 -20 -20 -20 -20 -20 -20 -20 -20 -20 -20 -20 -20 -20 -20 -20 -20 -20 -20 -20 -20 -20 -20 -20 -20 -20 -20 -20 -20
-20 -20 -20 -20 -20 -20 -20 -20 -20 -20 -20 -20 -20 -20 -20 -20 -20 -20 -20 -20 -20 -20 -20 -20 -20 -20 -20 -20 -20 -20 -20 -20 -20
-20 -20 2 -20 -20 -20 -20 -20 -20 -20 -20 -20 -20 -20 -20 -20 -20 -20 -20 -20 -20 -20 -20 -20 -20 -20 -20 -20 -20 -20 -20 -20 -20
26 -16 26 28 28 -14 1 -20 -20 21 -20 -20 1 -20 -20 -20 -19 -15 -8 -9 -20 -20 -20 -20 -20 -20 -20 -20 -20 -20 -20 -20 -20
-20 -19 -20 -20 -20 -20 -20 24 -20 -19 10 -18 -20 10 -20 -20 -17 -2 0 -11 -20 -20 -20 -20 -20 -20 -20 -20 -20 -20 -20 -20 -20
Wind_Speed
9 8 8 13 12 12 13 15 13 12 11 11 9 7 7 6 5 5 4 4 5 10 12 11 11 12 17 12 3 2 1 2 1
10 7 7 14 13 13 13 13 11 10 10 9 7 7 7 6 5 5 5 4 11 12 11 12 14 14 14 14 16 18 16 17 14
10 9 9 10 11 10 10 10 10 10 9 8 7 7 7 6 5 4 3 6 10 9 10 13 14 13 12 14 14 14 16 17 17
10 9 9 9 10 8 8 8 9 8 8 8 7 7 8 6 4 4 4 8 9 11 13 14 14 11 13 13 13 14 14 15 15
9 8 7 8 8 7 7 7 8 9 8 6 6 7 7 6 5 4 4 8 8 10 10 11 11 11 12 12 13 13 13 13 13
9 6 7 7 7 7 6 7 9 9 8 7 6 6 3 5 3 3 4 6 10 9 10 9 10 10 11 11 12 12 12 12 11
6 6 6 7 7 5 6 8 10 6 4 4 5 3 4 4 3 2 3 7 10 9 9 9 9 9 10 10 10 11 11 11 11
5 4 4 4 5 4 4 5 4 5 4 4 4 5 4 3 2 3 4 9 11 9 8 8 8 8 9 9 9 10 10 10 9
6 4 5 5 4 5 4 4 4 4 5 5 6 5 4 3 2 1 4 8 11 8 8 8 7 7 8 9 9 9 9 8 9
6 5 5 5 5 5 5 4 4 5 6 5 5 5 4 4 2 1 4 11 10 9 9 7 6 6 7 7 7 8 8 7 7
7 6 6 5 5 5 5 5 5 4 5 5 5 5 4 4 4 3 6 9 9 8 7 6 5 5 6 6 6 6 7 7 7
9 7 7 7 6 7 5 5 4 4 3 4 3 3 4 4 5 4 4 6 7 7 7 7 6 5 5 5 6 5 4 5 5
10 8 8 8 7 7 6 6 5 5 5 4 4 3 3 4 5 4 4 4 4 6 7 7 5 5 4 5 5 5 5 4 5
11 9 9 10 8 7 7 5 5 5 4 4 3 3 3 4 4 5 5 5 5 4 7 8 6 5 4 4 5 5 7 6 5
11 10 11 9 8 8 7 8 5 3 5 4 3 2 2 3 4 5 4 5 5 5 5 4 3 4 4 4 5 6 7 6 6
13 10 12 11 11 11 12 7 8 3 6 5 2 1 1 3 4 4 4 5 5 5 4 3 2 1 5 4 5 7 8 8 8
13 13 11 13 10 12 13 11 6 3 8 4 2 3 3 3 4 4 5 6 4 5 4 4 3 2 2 3 4 5 6 7 9
16 15 12 13 11 10 12 12 12 7 6 4 3 3 5 3 3 6 5 6 5 5 5 5 4 3 3 2 3 6 7 9 11
15 14 14 12 9 11 11 10 9 7 6 3 4 1 2 4 3 3 4 4 6 7 5 5 4 5 3 4 4 5 8 10 13
14 15 15 14 11 11 13 12 11 8 6 4 4 3 2 1 2 3 3 3 5 5 5 4 5 5 4 3 2 6 9 12 15
Wind_Direction
143 154 105 108 103 105 116 114 110 109 115 117 111 105 112 124 104 80 56 22 30 81 69 76 79 71 61 94 50 253 292 320 267
148 159 131 113 110 109 113 112 115 111 117 118 104 91 97 115 96 74 53 80 68 67 65 74 68 61 63 55 49 55 61 59 65
155 160 146 127 114 119 115 116 115 110 118 120 105 90 112 120 111 92 83 72 72 69 81 81 69 63 65 63 55 56 53 53 55
158 161 151 148 142 129 122 120 118 120 125 123 114 105 120 124 112 111 94 80 77 87 90 83 76 72 71 69 64 65 57 48 45
153 151 164 157 147 136 130 127 123 118 117 116 115 107 119 119 117 104 96 93 97 95 90 85 84 80 76 73 69 67 65 61 59
154 146 148 138 142 140 136 128 113 104 90 89 109 128 122 120 104 91 95 107 105 91 90 93 86 80 76 77 74 70 66 62 57
160 157 151 141 137 140 144 131 118 127 124 108 111 121 128 112 102 87 16 124 104 95 95 93 88 83 77 75 73 72 67 61 57
166 162 166 163 151 158 150 130 142 143 142 132 121 125 122 116 105 62 6 137 115 106 103 100 96 90 83 78 75 72 66 58 54
176 174 174 174 171 169 164 154 148 160 138 135 136 136 136 135 121 96 337 146 127 123 113 107 99 92 84 81 74 68 63 55 52
184 189 185 181 172 176 172 166 158 153 150 147 148 147 144 136 132 128 135 119 129 129 124 117 108 96 86 78 72 68 59 53 49
194 197 194 189 185 179 183 176 167 157 161 149 150 152 146 143 128 113 122 114 130 130 127 120 107 100 97 83 76 70 49 41 34
196 199 197 195 189 181 174 160 156 149 145 147 153 154 145 147 139 124 116 120 109 132 129 122 102 78 71 62 58 64 53 30 22
202 202 205 198 188 185 179 169 169 168 175 160 150 150 155 159 154 148 141 129 130 119 124 117 98 74 64 55 44 38 16 2 355
205 208 210 197 193 188 180 171 175 178 178 160 145 161 177 177 172 171 159 149 143 137 130 116 105 90 67 33 27 22 10 357 341
204 210 210 195 194 188 180 174 171 179 164 149 150 162 179 183 194 187 172 160 158 157 140 132 99 72 54 12 3 354 349 339 329
202 209 207 198 196 191 186 167 177 157 163 138 150 187 219 202 197 188 189 177 174 172 157 148 144 97 47 15 346 344 328 321 320
200 205 202 198 192 192 183 175 157 151 181 160 122 199 200 213 208 192 193 190 177 179 169 155 155 115 75 4 4 347 332 324 316
200 203 199 195 192 192 186 184 176 161 188 215 156 157 220 160 180 206 204 192 190 181 168 162 153 134 124 110 67 20 349 335 323
206 202 202 199 195 191 191 185 183 151 165 185 219 295 128 184 196 217 207 210 207 190 182 172 160 152 134 90 41 15 345 328 319
206 206 198 195 190 192 183 183 185 185 165 162 150 192 188 178 152 185 195 211 213 193 191 177 167 156 142 121 35 355 334 326 319